| time (UTC) | temp C | wind direction | speed KPH | gust KPH | rain 1hr cm | rain 24hr cm | rain mn cm | humidity % | barometer mb |
| 20260831191517 | 18 | 201 | 3.2 | 9.7 | 0.00 | 0.30 | 0.30 | 80 | 1018.7 |
| 20260831190517 | 18 | 211 | 1.6 | 9.7 | 0.00 | 0.30 | 0.30 | 79 | 1018.5 |
| 20260831185517 | 18 | 198 | 3.2 | 9.7 | 0.00 | 0.30 | 0.30 | 79 | 1018.4 |
| 20260831184527 | 18 | 212 | 3.2 | 9.7 | 0.00 | 0.30 | 0.30 | 78 | 1018.4 |
| 20260831183537 | 18 | 203 | 3.2 | 9.7 | 0.00 | 0.30 | 0.30 | 78 | 1018.3 |
| 20260831182517 | 18 | 219 | 3.2 | 14.5 | 0.00 | 0.30 | 0.30 | 77 | 1018.1 |
| 20260831181517 | 18 | 215 | 3.2 | 12.9 | 0.00 | 0.30 | 0.30 | 77 | 1017.9 |
| 20260831180517 | 18 | 205 | 4.8 | 9.7 | 0.00 | 0.30 | 0.30 | 77 | 1017.8 |
| 20260831175517 | 18 | 210 | 6.4 | 14.5 | 0.00 | 0.30 | 0.30 | 77 | 1017.7 |
| 20260831174517 | 19 | 200 | 6.4 | 24.1 | 0.00 | 0.30 | 0.30 | 77 | 1017.7 |
| 20260831172517 | 19 | 195 | 4.8 | 12.9 | 0.00 | 0.30 | 0.30 | 77 | 1017.5 |
| 20260831171517 | 20 | 192 | 4.8 | 14.5 | 0.00 | 0.30 | 0.30 | 78 | 1017.4 |
| 20260831170517 | 20 | 206 | 4.8 | 20.9 | 0.00 | 0.30 | 0.30 | 78 | 1017.3 |
| 20260831165517 | 20 | 206 | 4.8 | 16.1 | 0.00 | 0.30 | 0.30 | 79 | 1017.3 |
| 20260831164516 | 20 | 225 | 6.4 | 19.3 | 0.00 | 0.30 | 0.30 | 78 | 1017.3 |
| 20260831163537 | 20 | 207 | 6.4 | 12.9 | 0.00 | 0.30 | 0.30 | 79 | 1017.1 |
| 20260831162537 | 20 | 205 | 6.4 | 20.9 | 0.00 | 0.30 | 0.30 | 78 | 1017.1 |
| 20260831161517 | 20 | 214 | 4.8 | 17.7 | 0.00 | 0.30 | 0.30 | 79 | 1017.2 |
| 20260831160517 | 20 | 216 | 6.4 | 12.9 | 0.00 | 0.30 | 0.30 | 79 | 1017.2 |
| 20260831155537 | 20 | 205 | 6.4 | 14.5 | 0.00 | 0.30 | 0.30 | 78 | 1017.2 |
| 20260831154517 | 20 | 219 | 8.0 | 22.5 | 0.00 | 0.30 | 0.30 | 76 | 1017.1 |
| 20260831153517 | 21 | 207 | 8.0 | 19.3 | 0.00 | 0.30 | 0.30 | 76 | 1017.1 |
| 20260831152537 | 20 | 214 | 4.8 | 19.3 | 0.03 | 0.30 | 0.30 | 78 | 1017.0 |
| 20260831151517 | 20 | 215 | 6.4 | 12.9 | 0.13 | 0.30 | 0.30 | 79 | 1017.1 |
| 20260831150517 | 20 | 226 | 4.8 | 12.9 | 0.13 | 0.30 | 0.30 | 83 | 1017.2 |
| 20260831145537 | 19 | 224 | 4.8 | 14.5 | 0.13 | 0.30 | 0.30 | 84 | 1017.2 |
| 20260831144517 | 19 | 233 | 4.8 | 19.3 | 0.13 | 0.30 | 0.30 | 84 | 1017.0 |
| 20260831143538 | 19 | 230 | 4.8 | 12.9 | 0.13 | 0.30 | 0.30 | 81 | 1016.9 |
| 20260831142517 | 21 | 226 | 14.5 | 33.8 | 0.10 | 0.28 | 0.28 | 67 | 1017.0 |
| 20260831141517 | 23 | 212 | 9.7 | 20.9 | 0.00 | 0.18 | 0.18 | 52 | 1015.9 |
| 20260831140517 | 24 | 217 | 6.4 | 22.5 | 0.00 | 0.18 | 0.18 | 51 | 1015.5 |
| 20260831135517 | 24 | 215 | 11.3 | 27.4 | 0.00 | 0.18 | 0.18 | 52 | 1015.6 |
| 20260831134517 | 23 | 202 | 9.7 | 27.4 | 0.00 | 0.18 | 0.18 | 54 | 1015.7 |
| 20260831133517 | 23 | 208 | 11.3 | 27.4 | 0.00 | 0.18 | 0.18 | 56 | 1015.9 |
| 20260831132517 | 23 | 219 | 11.3 | 24.1 | 0.00 | 0.18 | 0.18 | 56 | 1016.1 |
| 20260831131517 | 23 | 218 | 11.3 | 24.1 | 0.00 | 0.18 | 0.18 | 54 | 1016.2 |
| 20260831130517 | 23 | 196 | 9.7 | 24.1 | 0.00 | 0.18 | 0.18 | 55 | 1016.2 |
| 20260831125517 | 23 | 218 | 12.9 | 25.7 | 0.00 | 0.18 | 0.18 | 52 | 1016.2 |
| 20260831124516 | 24 | 211 | 11.3 | 27.4 | 0.00 | 0.18 | 0.18 | 51 | 1016.2 |
| 20260831123537 | 23 | 195 | 11.3 | 22.5 | 0.00 | 0.18 | 0.18 | 54 | 1016.2 |
| 20260831122517 | 23 | 228 | 9.7 | 35.4 | 0.00 | 0.18 | 0.18 | 54 | 1016.3 |
| 20260831121517 | 23 | 217 | 11.3 | 33.8 | 0.00 | 0.18 | 0.18 | 53 | 1016.4 |
| 20260831120537 | 23 | 226 | 11.3 | 30.6 | 0.00 | 0.18 | 0.18 | 54 | 1016.4 |
| 20260831115517 | 23 | 226 | 9.7 | 22.5 | 0.00 | 0.18 | 0.18 | 56 | 1016.5 |
| 20260831114517 | 22 | 215 | 9.7 | 20.9 | 0.00 | 0.18 | 0.18 | 58 | 1016.6 |
| 20260831113517 | 22 | 222 | 9.7 | 20.9 | 0.00 | 0.18 | 0.18 | 59 | 1016.5 |
| 20260831112517 | 22 | 230 | 11.3 | 29.0 | 0.00 | 0.18 | 0.18 | 59 | 1016.6 |
| 20260831111537 | 22 | 215 | 6.4 | 20.9 | 0.00 | 0.18 | 0.18 | 61 | 1016.5 |
| 20260831110536 | 21 | 213 | 11.3 | 25.7 | 0.00 | 0.18 | 0.18 | 62 | 1016.6 |
| 20260831105517 | 21 | 225 | 11.3 | 27.4 | 0.00 | 0.18 | 0.18 | 64 | 1016.6 |
| 20260831104517 | 21 | 219 | 9.7 | 22.5 | 0.00 | 0.18 | 0.18 | 65 | 1016.6 |
| 20260831103517 | 21 | 220 | 12.9 | 22.5 | 0.00 | 0.18 | 0.18 | 66 | 1016.6 |
| 20260831102516 | 20 | 213 | 9.7 | 24.1 | 0.00 | 0.18 | 0.18 | 69 | 1016.7 |
| 20260831101517 | 20 | 227 | 12.9 | 29.0 | 0.00 | 0.18 | 0.18 | 69 | 1016.8 |
| 20260831100517 | 20 | 226 | 8.0 | 30.6 | 0.00 | 0.18 | 0.18 | 73 | 1016.8 |
| 20260831095517 | 20 | 222 | 11.3 | 29.0 | 0.00 | 0.18 | 0.18 | 75 | 1016.9 |
| 20260831094537 | 19 | 235 | 12.9 | 35.4 | 0.00 | 0.18 | 0.18 | 76 | 1017.0 |
| 20260831093517 | 20 | 221 | 12.9 | 29.0 | 0.00 | 0.18 | 0.18 | 72 | 1017.0 |
| 20260831092517 | 20 | 216 | 11.3 | 27.4 | 0.00 | 0.18 | 0.18 | 70 | 1016.8 |
| 20260831091537 | 20 | 211 | 8.0 | 19.3 | 0.00 | 0.18 | 0.18 | 68 | 1016.6 |
| 20260831090537 | 21 | 205 | 8.0 | 22.5 | 0.00 | 0.18 | 0.18 | 69 | 1016.5 |
| 20260831085517 | 21 | 189 | 6.4 | 20.9 | 0.00 | 0.18 | 0.18 | 70 | 1016.4 |
| 20260831084517 | 20 | 213 | 6.4 | 17.7 | 0.00 | 0.18 | 0.18 | 71 | 1016.4 |
| 20260831083517 | 20 | 215 | 4.8 | 12.9 | 0.00 | 0.18 | 0.18 | 71 | 1016.4 |
| 20260831082517 | 20 | 203 | 6.4 | 20.9 | 0.00 | 0.18 | 0.18 | 71 | 1016.4 |
| 20260831081517 | 20 | 218 | 6.4 | 19.3 | 0.00 | 0.18 | 0.18 | 72 | 1016.3 |
| 20260831080536 | 20 | 220 | 6.4 | 17.7 | 0.00 | 0.18 | 0.18 | 72 | 1016.3 |
| 20260831075517 | 19 | 217 | 8.0 | 22.5 | 0.00 | 0.18 | 0.18 | 72 | 1016.3 |
| 20260831074517 | 19 | 220 | 8.0 | 27.4 | 0.00 | 0.18 | 0.18 | 74 | 1016.3 |
| 20260831073516 | 19 | 222 | 9.7 | 29.0 | 0.00 | 0.18 | 0.18 | 74 | 1016.2 |
| 20260831072517 | 19 | 209 | 8.0 | 19.3 | 0.00 | 0.18 | 0.18 | 75 | 1016.2 |
| 20260831071517 | 19 | 229 | 4.8 | 17.7 | 0.00 | 0.18 | 0.18 | 75 | 1016.1 |
| 20260831070517 | 19 | 219 | 6.4 | 16.1 | 0.00 | 0.18 | 0.18 | 76 | 1016.2 |
| 20260831065517 | 18 | 216 | 8.0 | 19.3 | 0.00 | 0.18 | 0.18 | 77 | 1016.2 |
| 20260831064516 | 18 | 212 | 6.4 | 14.5 | 0.00 | 0.18 | 0.18 | 79 | 1016.1 |
| 20260831063516 | 18 | 213 | 4.8 | 14.5 | 0.00 | 0.18 | 0.18 | 82 | 1016.0 |
| 20260831062516 | 18 | 206 | 3.2 | 9.7 | 0.00 | 0.18 | 0.18 | 82 | 1016.0 |
| 20260831061517 | 18 | 218 | 3.2 | 19.3 | 0.00 | 0.18 | 0.18 | 82 | 1016.0 |
| 20260831060537 | 17 | 210 | 4.8 | 12.9 | 0.00 | 0.18 | 0.18 | 84 | 1016.0 |
| 20260831055517 | 17 | 203 | 3.2 | 12.9 | 0.00 | 0.18 | 0.18 | 84 | 1015.9 |
| 20260831054536 | 17 | 198 | 3.2 | 19.3 | 0.00 | 0.18 | 0.18 | 84 | 1015.9 |
| 20260831053516 | 17 | 214 | 4.8 | 14.5 | 0.00 | 0.18 | 0.18 | 84 | 1015.8 |
| 20260831052516 | 17 | 220 | 4.8 | 19.3 | 0.00 | 0.18 | 0.18 | 83 | 1015.7 |
| 20260831051517 | 17 | 223 | 6.4 | 17.7 | 0.00 | 0.18 | 0.18 | 84 | 1015.6 |
| 20260831050536 | 17 | 225 | 4.8 | 14.5 | 0.00 | 0.18 | 0.18 | 85 | 1015.5 |
| 20260831045517 | 17 | 221 | 6.4 | 16.1 | 0.00 | 0.18 | 0.18 | 85 | 1015.4 |
| 20260831044516 | 17 | 223 | 8.0 | 19.3 | 0.00 | 0.18 | 0.18 | 85 | 1015.3 |
| 20260831043516 | 17 | 218 | 8.0 | 29.0 | 0.00 | 0.18 | 0.18 | 85 | 1015.2 |
| 20260831042537 | 17 | 220 | 6.4 | 16.1 | 0.00 | 0.18 | 0.18 | 85 | 1015.2 |
| 20260831041557 | 17 | 218 | 4.8 | 14.5 | 0.00 | 0.18 | 0.18 | 85 | 1015.2 |
| 20260831040516 | 17 | 226 | 6.4 | 14.5 | 0.00 | 0.18 | 0.18 | 85 | 1015.2 |
| 20260831035537 | 17 | 221 | 6.4 | 22.5 | 0.00 | 0.18 | 0.18 | 85 | 1015.2 |
| 20260831034537 | 17 | 221 | 4.8 | 17.7 | 0.00 | 0.18 | 0.18 | 86 | 1015.2 |
| 20260831033517 | 17 | 222 | 6.4 | 20.9 | 0.00 | 0.18 | 0.18 | 87 | 1015.1 |
| 20260831032537 | 17 | 211 | 6.4 | 16.1 | 0.00 | 0.18 | 0.18 | 88 | 1015.2 |
| 20260831031517 | 17 | 221 | 3.2 | 14.5 | 0.00 | 0.18 | 0.18 | 89 | 1015.1 |
| 20260831030517 | 17 | 206 | 3.2 | 11.3 | 0.00 | 0.18 | 0.18 | 89 | 1015.0 |
| 20260831025537 | 17 | 202 | 4.8 | 9.7 | 0.00 | 0.18 | 0.18 | 89 | 1015.0 |
| 20260831024516 | 17 | 205 | 6.4 | 12.9 | 0.00 | 0.18 | 0.18 | 88 | 1014.9 |
| 20260831023537 | 17 | 226 | 4.8 | 11.3 | 0.00 | 0.18 | 0.18 | 89 | 1014.8 |
| 20260831022517 | 17 | 222 | 6.4 | 17.7 | 0.00 | 0.18 | 0.18 | 89 | 1014.7 |
| 20260831021517 | 17 | 212 | 4.8 | 14.5 | 0.00 | 0.18 | 0.18 | 90 | 1014.7 |
| 20260831020517 | 17 | 216 | 6.4 | 14.5 | 0.00 | 0.18 | 0.18 | 90 | 1014.7 |
| 20260831015537 | 17 | 231 | 4.8 | 17.7 | 0.00 | 0.18 | 0.18 | 90 | 1014.7 |
| 20260831014517 | 17 | 221 | 3.2 | 9.7 | 0.00 | 0.18 | 0.18 | 91 | 1014.6 |
| 20260831013517 | 17 | 218 | 8.0 | 19.3 | 0.00 | 0.18 | 0.18 | 91 | 1014.4 |
| 20260831012517 | 17 | 217 | 4.8 | 24.1 | 0.00 | 0.18 | 0.18 | 92 | 1014.5 |
| 20260831011516 | 17 | 199 | 1.6 | 4.8 | 0.03 | 0.18 | 0.18 | 92 | 1014.5 |
| 20260831010517 | 17 | 19 | 1.6 | 4.8 | 0.03 | 0.18 | 0.18 | 91 | 1014.5 |
| 20260831005537 | 17 | 197 | 1.6 | 8.0 | 0.03 | 0.18 | 0.18 | 91 | 1014.4 |
| 20260831004516 | 17 | 213 | 3.2 | 9.7 | 0.05 | 0.18 | 0.18 | 91 | 1014.4 |
| 20260831003515 | 17 | 221 | 4.8 | 16.1 | 0.05 | 0.18 | 0.18 | 91 | 1014.2 |
| 20260831002537 | 17 | 209 | 3.2 | 11.3 | 0.05 | 0.18 | 0.18 | 90 | 1014.4 |
| 20260831001517 | 17 | 227 | 3.2 | 12.9 | 0.15 | 0.15 | 0.15 | 90 | 1014.4 |
| 20260831000537 | 17 | 229 | 3.2 | 6.4 | 0.15 | 0.15 | 0.15 | 90 | 1014.2 |
| 20260830235537 | 17 | 244 | 1.6 | 11.3 | 0.15 | 0.15 | 0.15 | 89 | 1014.3 |
| 20260830234516 | 18 | 232 | 4.8 | 9.7 | 0.15 | 0.15 | 0.15 | 87 | 1014.3 |
| 20260830233515 | 18 | 245 | 1.6 | 4.8 | 0.15 | 0.15 | 0.15 | 85 | 1014.1 |
| 20260830232517 | 18 | 279 | 0.0 | 4.8 | 0.13 | 0.13 | 0.13 | 83 | 1014.3 |
| 20260830231517 | 19 | 225 | 3.2 | 17.7 | 0.03 | 0.03 | 0.03 | 80 | 1014.1 |
| 20260830230537 | 19 | 239 | 6.4 | 12.9 | 0.00 | 0.00 | 0.00 | 76 | 1013.7 |
| 20260830225537 | 19 | 229 | 6.4 | 16.1 | 0.00 | 0.00 | 0.00 | 76 | 1013.3 |
| 20260830224517 | 19 | 224 | 4.8 | 8.0 | 0.00 | 0.00 | 0.00 | 76 | 1013.2 |
| 20260830223537 | 19 | 227 | 4.8 | 9.7 | 0.00 | 0.00 | 0.00 | 76 | 1013.4 |
| 20260830222517 | 19 | 220 | 4.8 | 8.0 | 0.00 | 0.00 | 0.00 | 76 | 1013.5 |
| 20260830221516 | 19 | 229 | 4.8 | 9.7 | 0.00 | 0.00 | 0.00 | 77 | 1013.6 |
| 20260830220517 | 18 | 222 | 4.8 | 8.0 | 0.00 | 0.00 | 0.00 | 77 | 1013.6 |
| 20260830215517 | 18 | 228 | 3.2 | 6.4 | 0.00 | 0.00 | 0.00 | 77 | 1013.6 |
| 20260830214517 | 18 | 226 | 3.2 | 6.4 | 0.00 | 0.00 | 0.00 | 78 | 1013.6 |
| 20260830213517 | 18 | 232 | 3.2 | 4.8 | 0.00 | 0.00 | 0.00 | 78 | 1013.7 |
| 20260830212517 | 18 | 227 | 3.2 | 8.0 | 0.00 | 0.00 | 0.00 | 78 | 1013.7 |
| 20260830211517 | 18 | 226 | 3.2 | 6.4 | 0.00 | 0.00 | 0.00 | 78 | 1013.7 |
| 20260830210517 | 18 | 215 | 3.2 | 6.4 | 0.00 | 0.00 | 0.00 | 78 | 1013.9 |
| 20260830205517 | 18 | 173 | 1.6 | 4.8 | 0.00 | 0.00 | 0.00 | 78 | 1013.8 |
| 20260830204517 | 18 | 228 | 3.2 | 6.4 | 0.00 | 0.00 | 0.00 | 77 | 1013.7 |
| 20260830203537 | 19 | 225 | 3.2 | 6.4 | 0.00 | 0.00 | 0.00 | 76 | 1013.8 |
| 20260830202517 | 19 | 226 | 3.2 | 9.7 | 0.00 | 0.00 | 0.00 | 76 | 1013.9 |
| 20260830201517 | 19 | 227 | 4.8 | 8.0 | 0.00 | 0.00 | 0.00 | 75 | 1013.9 |
| 20260830200517 | 20 | 230 | 4.8 | 9.7 | 0.00 | 0.00 | 0.00 | 75 | 1013.9 |
| 20260830195537 | 20 | 227 | 6.4 | 11.3 | 0.00 | 0.00 | 0.00 | 74 | 1014.0 |
| 20260830194517 | 20 | 210 | 3.2 | 6.4 | 0.00 | 0.00 | 0.00 | 74 | 1014.1 |
| 20260830193517 | 20 | 218 | 4.8 | 8.0 | 0.00 | 0.00 | 0.00 | 73 | 1014.1 |
| 20260830192517 | 20 | 220 | 3.2 | 6.4 | 0.00 | 0.00 | 0.00 | 73 | 1014.1 |